�������l�o���
Date,Time,MP-1(��Sv/h),MP-2(��Sv/h),MP-3(��Sv/h),MP-4(��Sv/h),MP-5(��Sv/h),MP-6(��Sv/h),MP-7(��Sv/h),MP-8(��Sv/h),����,����(m/s),���J
2016/11/04,00:00,1.114,1.929,1.303,2.164,1.500,0.594,1.071,0.983,��,6.9,��
2016/11/04,00:10,1.115,1.927,1.300,2.162,1.503,0.589,1.069,0.985,���쐼,8.8,��
2016/11/04,00:20,1.114,1.930,1.302,2.164,1.501,0.592,1.070,0.986,��,7.7,��
2016/11/04,00:30,1.114,1.928,1.300,2.163,1.502,0.591,1.067,0.985,��,7.4,��
2016/11/04,00:40,1.116,1.928,1.302,2.165,1.499,0.591,1.072,0.985,��,6.0,��
2016/11/04,00:50,1.114,1.928,1.301,2.161,1.501,0.593,1.070,0.983,��,5.2,��
2016/11/04,01:00,1.114,1.928,1.302,2.160,1.499,0.592,1.071,0.986,��,8.0,��
2016/11/04,01:10,1.114,1.929,1.299,2.162,1.502,0.594,1.068,0.984,��,7.4,��
2016/11/04,01:20,1.116,1.930,1.302,2.162,1.498,0.592,1.070,0.984,���k��,7.5,��
2016/11/04,01:30,1.112,1.929,1.302,2.162,1.500,0.594,1.071,0.985,���k��,9.3,��
2016/11/04,01:40,1.113,1.924,1.301,2.163,1.500,0.593,1.069,0.986,�k��,8.6,��
2016/11/04,01:50,1.113,1.927,1.302,2.161,1.499,0.592,1.069,0.985,�k��,8.0,��
2016/11/04,02:00,1.114,1.929,1.302,2.163,1.497,0.592,1.069,0.987,�k��,3.5,��
2016/11/04,02:10,1.112,1.926,1.300,2.160,1.499,0.591,1.069,0.984,�k��,3.6,��
2016/11/04,02:20,1.115,1.929,1.301,2.161,1.500,0.594,1.071,0.984,�k��,4.2,��
2016/11/04,02:30,1.112,1.927,1.301,2.162,1.501,0.594,1.069,0.985,���k��,4.9,��
2016/11/04,02:40,1.113,1.925,1.303,2.164,1.498,0.593,1.070,0.985,���k��,4.7,��
2016/11/04,02:50,1.113,1.928,1.300,2.162,1.499,0.592,1.071,0.985,�k��,5.0,��
2016/11/04,03:00,1.115,1.929,1.302,2.159,1.501,0.592,1.069,0.985,�k��,4.6,��
2016/11/04,03:10,1.111,1.927,1.302,2.163,1.499,0.591,1.071,0.983,�k��,4.5,��
2016/11/04,03:20,1.112,1.926,1.301,2.162,1.500,0.592,1.068,0.985,�k��,4.1,��
2016/11/04,03:30,1.114,1.928,1.299,2.163,1.501,0.591,1.068,0.985,���k��,3.9,��
2016/11/04,03:40,1.113,1.926,1.301,2.162,1.499,0.592,1.070,0.987,�k��,3.2,��
2016/11/04,03:50,1.113,1.927,1.303,2.160,1.498,0.592,1.069,0.985,�k��,2.7,��
2016/11/04,04:00,1.112,1.925,1.300,2.162,1.501,0.591,1.070,0.983,�k,2.4,��
2016/11/04,04:10,1.111,1.927,1.302,2.158,1.499,0.591,1.069,0.984,�k�k��,2.7,��
2016/11/04,04:20,1.111,1.923,1.301,2.161,1.501,0.590,1.069,0.983,�k�k��,3.0,��
2016/11/04,04:30,1.110,1.924,1.298,2.164,1.497,0.592,1.068,0.985,�k��,3.8,��
2016/11/04,04:40,1.110,1.926,1.301,2.162,1.495,0.592,1.066,0.985,�k�k��,4.2,��
2016/11/04,04:50,1.113,1.925,1.298,2.159,1.498,0.591,1.070,0.984,�k�k��,6.7,��
2016/11/04,05:00,1.111,1.923,1.303,2.160,1.497,0.590,1.068,0.984,�k�k��,7.1,��
2016/11/04,05:10,1.114,1.923,1.299,2.161,1.500,0.590,1.068,0.984,�k��,5.5,��
2016/11/04,05:20,1.110,1.924,1.300,2.159,1.500,0.588,1.069,0.984,���k��,4.1,��
2016/11/04,05:30,1.110,1.924,1.298,2.158,1.499,0.591,1.069,0.984,���k��,4.1,��
2016/11/04,05:40,1.112,1.923,1.299,2.160,1.502,0.588,1.066,0.985,��,2.8,��
2016/11/04,05:50,1.112,1.924,1.297,2.158,1.501,0.589,1.069,0.984,���쐼,2.8,��
2016/11/04,06:00,1.109,1.925,1.299,2.159,1.500,0.590,1.068,0.983,��,2.8,��
2016/11/04,06:10,1.108,1.926,1.297,2.159,1.499,0.590,1.067,0.983,��,2.3,��
2016/11/04,06:20,1.111,1.926,1.294,2.158,1.499,0.590,1.068,0.984,���k��,2.0,��
2016/11/04,06:30,1.110,1.925,1.295,2.158,1.497,0.590,1.066,0.984,���k��,2.1,��
2016/11/04,06:40,1.110,1.926,1.296,2.159,1.495,0.589,1.067,0.984,�k��,3.0,��
2016/11/04,06:50,1.111,1.925,1.295,2.160,1.499,0.589,1.068,0.984,�k��,4.1,��
2016/11/04,07:00,1.108,1.925,1.295,2.158,1.500,0.591,1.069,0.982,�k��,4.1,��
2016/11/04,07:10,1.110,1.926,1.294,2.159,1.496,0.590,1.068,0.983,�k��,3.0,��
2016/11/04,07:20,1.109,1.922,1.295,2.160,1.497,0.591,1.068,0.985,�k��,3.3,��
2016/11/04,07:30,1.110,1.922,1.296,2.160,1.499,0.589,1.069,0.984,�k��,4.9,��
2016/11/04,07:40,1.112,1.923,1.295,2.161,1.498,0.591,1.069,0.984,�k��,5.2,��
2016/11/04,07:50,1.109,1.925,1.294,2.161,1.499,0.589,1.069,0.984,�k��,4.6,��
2016/11/04,08:00,1.109,1.921,1.298,2.162,1.502,0.591,1.069,0.983,���k��,4.9,��
2016/11/04,08:10,1.106,1.920,1.297,2.162,1.499,0.592,1.071,0.985,���k��,4.4,��
2016/11/04,08:20,1.107,1.924,1.300,2.164,1.499,0.589,1.072,0.985,���k��,4.9,��
2016/11/04,08:30,1.107,1.924,1.298,2.165,1.498,0.589,1.071,0.986,���k��,6.0,��
2016/11/04,08:40,1.113,1.924,1.299,2.166,1.495,0.591,1.071,0.985,���k��,3.8,��
2016/11/04,08:50,1.114,1.924,1.298,2.160,1.498,0.593,1.069,0.985,���k��,1.9,��
2016/11/04,09:00,1.116,1.924,1.297,2.162,1.498,0.592,1.067,0.986,�k��,0.9,��
2016/11/04,09:10,1.115,1.921,1.299,2.164,1.499,0.590,1.068,0.985,���k��,0.8,��
2016/11/04,09:20,1.116,1.924,1.297,2.165,1.503,0.590,1.069,0.984,�k,2.4,��
2016/11/04,09:30,1.117,1.925,1.301,2.168,1.499,0.590,1.067,0.985,�k�k��,2.5,��
2016/11/04,09:40,1.117,1.927,1.300,2.165,1.503,0.591,1.068,0.984,�k�k��,3.4,��
2016/11/04,09:50,1.116,1.924,1.301,2.167,1.501,0.589,1.068,0.987,�k�k��,3.5,��
2016/11/04,10:00,1.118,1.922,1.300,2.165,1.504,0.587,1.069,0.988,�k,2.5,��
2016/11/04,10:10,1.117,1.918,1.293,2.164,1.504,0.589,1.071,0.987,�k,1.4,��
2016/11/04,10:20,1.119,1.920,1.294,2.170,1.503,0.588,1.070,0.987,���k��,1.3,��
2016/11/04,10:30,1.120,1.921,1.294,2.165,1.505,0.590,1.069,0.986,�쓌,1.2,��
2016/11/04,10:40,1.119,1.922,1.295,2.165,1.504,0.591,1.069,0.988,�쓌,3.0,��
2016/11/04,10:50,1.119,1.922,1.296,2.167,1.502,0.589,1.069,0.987,�쓌,2.8,��
2016/11/04,11:00,1.119,1.921,1.296,2.165,1.503,0.591,1.070,0.987,�쓌,2.8,��
2016/11/04,11:10,1.115,1.925,1.300,2.169,1.504,0.590,1.071,0.987,���쓌,2.4,��
2016/11/04,11:20,1.118,1.921,1.297,2.168,1.504,0.589,1.069,0.986,���쓌,2.5,��
2016/11/04,11:30,1.118,1.925,1.298,2.170,1.504,0.589,1.071,0.987,��,3.5,��
2016/11/04,11:40,1.118,1.926,1.301,2.167,1.501,0.587,1.071,0.987,���쓌,3.0,��
2016/11/04,11:50,1.119,1.924,1.306,2.169,1.503,0.588,1.070,0.986,�쓌,3.9,��
2016/11/04,12:00,1.121,1.925,1.305,2.166,1.504,0.587,1.069,0.987,��,2.8,��
2016/11/04,12:10,1.120,1.928,1.303,2.167,1.501,0.587,1.071,0.985,��,3.0,��
2016/11/04,12:20,1.121,1.928,1.303,2.168,1.501,0.590,1.071,0.986,��,3.0,��
2016/11/04,12:30,1.122,1.928,1.306,2.169,1.505,0.590,1.070,0.985,���k��,3.2,��
2016/11/04,12:40,1.123,1.926,1.306,2.167,1.503,0.590,1.070,0.986,��,3.3,��
2016/11/04,12:50,1.123,1.927,1.303,2.170,1.501,0.589,1.070,0.988,���k��,4.2,��
2016/11/04,13:00,1.122,1.923,1.304,2.169,1.505,0.589,1.069,0.986,���k��,3.3,��
2016/11/04,13:10,1.121,1.923,1.303,2.171,1.507,0.590,1.070,0.986,���k��,3.2,��
2016/11/04,13:20,1.122,1.925,1.304,2.173,1.505,0.591,1.069,0.987,���k��,3.0,��
2016/11/04,13:30,1.122,1.922,1.304,2.172,1.505,0.592,1.070,0.984,��,2.0,��
2016/11/04,13:40,1.122,1.926,1.302,2.170,1.506,0.590,1.069,0.983,���쓌,2.0,��
2016/11/04,13:50,1.122,1.926,1.304,2.171,1.505,0.591,1.070,0.987,���쓌,2.4,��
2016/11/04,14:00,1.123,1.928,1.305,2.170,1.500,0.589,1.070,0.985,���쓌,1.5,��
2016/11/04,14:10,1.124,1.927,1.306,2.170,1.503,0.585,1.070,0.984,���쓌,2.5,��
2016/11/04,14:20,1.123,1.932,1.304,2.172,1.506,0.586,1.070,0.985,�쓌,2.4,��
2016/11/04,14:30,1.121,1.925,1.306,2.169,1.509,0.586,1.068,0.983,�쓌,2.5,��
2016/11/04,14:40,1.122,1.931,1.309,2.169,1.507,0.585,1.067,0.986,�쓌,3.2,��
2016/11/04,14:50,1.123,1.929,1.308,2.171,1.507,0.586,1.068,0.984,���쓌,2.5,��
2016/11/04,15:00,1.123,1.928,1.307,2.170,1.508,0.587,1.069,0.984,�쓌,1.9,��
2016/11/04,15:10,1.123,1.930,1.309,2.172,1.507,0.588,1.068,0.985,���쓌,1.7,��
2016/11/04,15:20,1.122,1.931,1.306,2.168,1.507,0.587,1.069,0.986,���쓌,2.5,��
2016/11/04,15:30,1.123,1.931,1.308,2.165,1.505,0.586,1.069,0.986,�쓌,3.2,��
2016/11/04,15:40,1.122,1.930,1.308,2.170,1.509,0.587,1.068,0.986,�쓌,2.2,��
2016/11/04,15:50,1.124,1.933,1.310,2.169,1.509,0.586,1.069,0.988,��쓌,2.1,��
2016/11/04,16:00,1.123,1.933,1.309,2.171,1.508,0.586,1.069,0.986,���쓌,1.5,��
2016/11/04,16:10,1.123,1.930,1.308,2.166,1.509,0.587,1.070,0.988,�쓌,1.0,��
2016/11/04,16:20,1.125,1.931,1.309,2.167,1.510,0.587,1.070,0.987,�k�k��,0.5,��
2016/11/04,16:30,1.121,1.930,1.306,2.169,1.509,0.587,1.069,0.987,���k��,0.8,��
2016/11/04,16:40,1.122,1.927,1.308,2.167,1.511,0.587,1.071,0.988,���쐼,0.6,��
2016/11/04,16:50,1.123,1.932,1.307,2.167,1.510,0.587,1.069,0.986,���쐼,1.9,��
2016/11/04,17:00,1.120,1.930,1.303,2.167,1.510,0.586,1.070,0.986,���쐼,2.0,��
2016/11/04,17:10,1.120,1.932,1.303,2.166,1.510,0.585,1.071,0.984,��,2.0,��
2016/11/04,17:20,1.120,1.933,1.305,2.165,1.510,0.586,1.070,0.986,���쐼,3.5,��
2016/11/04,17:30,1.122,1.931,1.304,2.165,1.508,0.586,1.071,0.984,���k��,3.6,��
2016/11/04,17:40,1.119,1.933,1.303,2.167,1.509,0.586,1.070,0.984,��,3.8,��
2016/11/04,17:50,1.120,1.931,1.307,2.167,1.508,0.586,1.069,0.983,��,3.3,��
2016/11/04,18:00,1.121,1.930,1.307,2.164,1.509,0.586,1.069,0.985,���k��,3.3,��
2016/11/04,18:10,1.121,1.928,1.305,2.167,1.508,0.585,1.069,0.985,��,3.6,��
2016/11/04,18:20,1.121,1.928,1.304,2.166,1.509,0.584,1.071,0.986,��,2.8,��
2016/11/04,18:30,1.121,1.930,1.303,2.163,1.508,0.585,1.069,0.986,��,3.4,��
2016/11/04,18:40,1.118,1.930,1.304,2.168,1.507,0.586,1.070,0.984,��,2.7,��
2016/11/04,18:50,1.117,1.930,1.304,2.165,1.504,0.584,1.070,0.986,��,2.9,��
2016/11/04,19:00,1.120,1.929,1.302,2.168,1.505,0.586,1.070,0.983,��,3.1,��
2016/11/04,19:10,1.119,1.926,1.304,2.167,1.507,0.583,1.069,0.986,���k��,3.1,��
2016/11/04,19:20,1.121,1.930,1.303,2.163,1.505,0.586,1.072,0.985,��,3.0,��
2016/11/04,19:30,1.118,1.929,1.304,2.166,1.507,0.585,1.071,0.985,��,3.6,��
2016/11/04,19:40,1.119,1.930,1.304,2.163,1.508,0.585,1.071,0.984,���쐼,3.8,��
2016/11/04,19:50,1.120,1.929,1.301,2.165,1.509,0.585,1.071,0.984,�쐼,3.2,��
2016/11/04,20:00,1.116,1.927,1.303,2.164,1.507,0.585,1.071,0.985,���쐼,3.3,��
2016/11/04,20:10,1.117,1.929,1.304,2.163,1.504,0.584,1.069,0.985,���쐼,2.5,��
2016/11/04,20:20,1.118,1.931,1.302,2.165,1.503,0.585,1.068,0.986,��,3.4,��
2016/11/04,20:30,1.117,1.928,1.302,2.161,1.506,0.585,1.070,0.987,���k��,4.1,��
2016/11/04,20:40,1.120,1.929,1.303,2.161,1.508,0.583,1.070,0.984,�k�k��,3.0,��
2016/11/04,20:50,1.115,1.930,1.305,2.164,1.505,0.584,1.069,0.985,�k,3.1,��
2016/11/04,21:00,1.117,1.930,1.305,2.169,1.506,0.587,1.071,0.983,�k�k��,4.4,��
2016/11/04,21:10,1.117,1.927,1.302,2.164,1.509,0.584,1.070,0.985,�k�k��,4.4,��
2016/11/04,21:20,1.119,1.930,1.302,2.165,1.505,0.583,1.070,0.985,�k��,2.4,��
2016/11/04,21:30,1.118,1.928,1.304,2.165,1.507,0.584,1.070,0.986,���k��,1.9,��
2016/11/04,21:40,1.120,1.927,1.303,2.162,1.506,0.585,1.070,0.983,��쐼,1.1,��
2016/11/04,21:50,1.117,1.928,1.302,2.162,1.507,0.584,1.069,0.984,��쐼,2.8,��
2016/11/04,22:00,1.116,1.928,1.303,2.163,1.505,0.585,1.069,0.984,��쐼,1.6,��
2016/11/04,22:10,1.117,1.929,1.302,2.161,1.505,0.586,1.070,0.984,�쐼,1.9,��
2016/11/04,22:20,1.118,1.925,1.302,2.164,1.503,0.584,1.068,0.984,��쐼,2.0,��
2016/11/04,22:30,1.117,1.924,1.303,2.165,1.505,0.584,1.069,0.985,��,2.4,��
2016/11/04,22:40,1.118,1.930,1.301,2.163,1.507,0.583,1.069,0.984,��,1.9,��
2016/11/04,22:50,1.117,1.929,1.302,2.162,1.505,0.585,1.070,0.986,��쓌,2.3,��
2016/11/04,23:00,1.117,1.927,1.302,2.163,1.507,0.585,1.070,0.985,��쓌,1.1,��
2016/11/04,23:10,1.117,1.928,1.302,2.162,1.508,0.585,1.070,0.985,�쓌,0.5,��
2016/11/04,23:20,1.115,1.927,1.303,2.164,1.507,0.585,1.069,0.986,-,CALM,��
2016/11/04,23:30,1.117,1.927,1.300,2.165,1.507,0.585,1.070,0.985,��쓌,1.3,��
2016/11/04,23:40,1.119,1.926,1.302,2.162,1.505,0.585,1.069,0.983,��,2.1,��
2016/11/04,23:50,1.116,1.929,1.302,2.163,1.504,0.585,1.070,0.985,��,2.6,��
